Location: Unspecified
(40.7945°N, 111.1337°W)
Time: 05:20:45
(UTC-06:00)

Vanguard 1 - Pass Details

Date: 24 June 2019
Orbit: 653 x 3830 km, 34.3° (Epoch: 20 July)

Event Time Altitude Azimuth Distance (km) Brightness Sun altitude
Exits shadow 02:28:40 31° 199° (SSW) 4,892 12.9 -24.2°
Maximum altitude 02:37:35 44° 155° (SSE) 3,740 12.6 -23.7°
Drops below altitude 10° 02:50:20 10° 89° (E) 4,582 13.7 -22.9°
Sets 02:53:25 0° 83° (E) 5,223 14.2 -22.7°
